Location: Hertford
(51.7958°N, 0.0812°W)
Time: 01:23:47
(UTC+00:00)

ISS - Visible Passes

Search period start: 17 February 2019 00:00
Search period end: 27 February 2019 00:00
Orbit: 403 x 411 km, 51.6° (Epoch: 17 February)

Date Brightness Start Highest point End Pass type
(mag) Time Alt. Az. Time Alt. Az. Time Alt. Az.
22 Feb -0.5 06:25:43 10° SSE 06:26:44 11° SE 06:27:45 10° ESE visible
24 Feb -1.3 06:17:25 10° SSW 06:19:55 20° SE 06:22:27 10° E visible
25 Feb -1.0 05:26:55 10° S 05:28:38 14° SE 05:30:22 10° ESE visible
26 Feb -2.4 06:10:10 10° SW 06:13:10 35° SSE 06:16:12 10° E visible
